Time,TemperatureF,DewpointF,PressureIn,WindDirection,WindDirectionDegrees,WindSpeedMPH,WindSpeedGustMPH,Humidity,HourlyPrecipIn,Conditions,Clouds,dailyrainin,SoftwareType,DateUTC
2013-08-23 00:22:00,70.0,68.0,30.00,NNW,340,0.0,-999.0,94,-99.99,,,-99.99,,2013-08-23 05:22:00,
2013-08-23 00:52:00,69.0,67.0,30.01,NNW,340,0.0,-999.0,94,-99.99,,,-99.99,,2013-08-23 05:52:00,
2013-08-23 01:12:00,69.0,67.0,30.01,NNW,340,0.0,-999.0,94,-99.99,,,-99.99,,2013-08-23 06:12:00,
2013-08-23 01:22:00,69.0,67.0,30.00,NNW,340,0.0,-999.0,94,-99.99,,,-99.99,,2013-08-23 06:22:00,
2013-08-23 01:41:00,68.0,66.0,30.00,NNW,340,0.0,-999.0,94,-99.99,,,-99.99,,2013-08-23 06:41:00,
2013-08-23 01:52:00,68.0,66.0,29.99,NNW,340,0.0,-999.0,94,-99.99,,,-99.99,,2013-08-23 06:52:00,
2013-08-23 02:12:00,68.0,66.0,29.99,NNW,340,0.0,-999.0,94,-99.99,,,-99.99,,2013-08-23 07:12:00,
2013-08-23 02:22:00,68.0,66.0,29.99,NNW,340,0.0,-999.0,94,-99.99,,,-99.99,,2013-08-23 07:22:00,
2013-08-23 02:52:00,67.0,65.0,29.99,NNW,340,0.0,-999.0,94,-99.99,,,-99.99,,2013-08-23 07:52:00,
2013-08-23 03:13:00,67.0,65.0,29.99,NNW,340,0.0,-999.0,94,-99.99,,,-99.99,,2013-08-23 08:13:00,
2013-08-23 03:22:00,67.0,66.0,29.99,NNW,340,0.0,-999.0,95,-99.99,,,-99.99,,2013-08-23 08:22:00,
2013-08-23 03:52:00,67.0,66.0,29.99,NNW,340,0.0,-999.0,95,-99.99,,,-99.99,,2013-08-23 08:52:00,
2013-08-23 04:12:00,67.0,66.0,29.99,NNW,340,0.0,-999.0,95,-99.99,,,-99.99,,2013-08-23 09:12:00,
2013-08-23 04:21:00,67.0,66.0,29.99,NNW,340,0.0,-999.0,95,-99.99,,,-99.99,,2013-08-23 09:21:00,
2013-08-23 04:53:00,66.0,65.0,29.99,NNW,340,0.0,-999.0,95,-99.99,,,-99.99,,2013-08-23 09:53:00,
2013-08-23 05:13:00,66.0,65.0,30.00,NNW,340,0.0,-999.0,95,-99.99,,,-99.99,,2013-08-23 10:13:00,
2013-08-23 05:23:00,66.0,65.0,30.00,NNW,340,0.0,-999.0,95,-99.99,,,-99.99,,2013-08-23 10:23:00,
2013-08-23 05:53:00,66.0,65.0,30.01,NNW,340,0.0,-999.0,95,-99.99,,,-99.99,,2013-08-23 10:53:00,
2013-08-23 06:11:00,66.0,65.0,30.01,NNW,340,0.0,-999.0,95,-99.99,,,-99.99,,2013-08-23 11:11:00,
2013-08-23 06:22:00,66.0,65.0,30.01,NNW,340,0.0,-999.0,95,-99.99,,,-99.99,,2013-08-23 11:22:00,
2013-08-23 06:42:00,66.0,65.0,30.01,NNW,340,0.0,-999.0,95,-99.99,,,-99.99,,2013-08-23 11:42:00,
2013-08-23 06:53:00,66.0,65.0,30.02,NNW,340,0.0,-999.0,95,-99.99,,,-99.99,,2013-08-23 11:53:00,
2013-08-23 07:11:00,66.0,65.0,30.02,NNW,340,0.0,-999.0,95,-99.99,,,-99.99,,2013-08-23 12:11:00,
2013-08-23 07:22:00,66.0,65.0,30.03,NNW,340,0.0,-999.0,95,-99.99,,,-99.99,,2013-08-23 12:22:00,
2013-08-23 07:42:00,66.0,65.0,30.03,NNW,340,0.0,-999.0,95,-99.99,,,-99.99,,2013-08-23 12:42:00,
2013-08-23 07:52:00,66.0,65.0,30.03,NNW,340,0.0,-999.0,95,-99.99,,,-99.99,,2013-08-23 12:52:00,
2013-08-23 08:22:00,67.0,66.0,30.03,NNW,340,0.0,-999.0,96,-99.99,,,-99.99,,2013-08-23 13:22:00,
2013-08-23 08:42:00,67.0,66.0,30.04,NNW,340,0.0,-999.0,96,-99.99,,,-99.99,,2013-08-23 13:42:00,
2013-08-23 08:53:00,68.0,67.0,30.04,NNW,340,0.0,-999.0,96,-99.99,,,-99.99,,2013-08-23 13:53:00,
2013-08-23 09:12:00,69.0,68.0,30.04,NNW,340,0.0,-999.0,96,-99.99,,,-99.99,,2013-08-23 14:12:00,
2013-08-23 09:21:00,70.0,69.0,30.04,NNW,340,0.0,-999.0,96,-99.99,,,-99.99,,2013-08-23 14:21:00,
2013-08-23 09:52:00,73.0,71.0,30.04,NNW,340,0.0,-999.0,93,-99.99,,,-99.99,,2013-08-23 14:52:00,
2013-08-23 10:11:00,76.0,73.0,30.03,NNW,340,0.0,-999.0,89,-99.99,,,-99.99,,2013-08-23 15:11:00,
2013-08-23 10:22:00,78.0,73.0,30.03,NNW,340,0.0,-999.0,86,-99.99,,,-99.99,,2013-08-23 15:22:00,
2013-08-23 10:44:00,80.0,74.0,30.03,NNW,340,0.0,-999.0,82,-99.99,,,-99.99,,2013-08-23 15:44:00,
2013-08-23 10:54:00,82.0,75.0,30.03,NNW,340,0.0,-999.0,79,-99.99,,,-99.99,,2013-08-23 15:54:00,
2013-08-23 11:13:00,84.0,76.0,30.03,NNW,340,0.0,-999.0,77,-99.99,,,-99.99,,2013-08-23 16:13:00,
2013-08-23 11:24:00,86.0,77.0,30.03,NNW,340,0.0,-999.0,74,-99.99,,,-99.99,,2013-08-23 16:24:00,
2013-08-23 11:42:00,86.0,76.0,30.02,NNW,340,0.0,-999.0,72,-99.99,,,-99.99,,2013-08-23 16:42:00,
2013-08-23 11:53:00,87.0,76.0,30.02,NNW,340,0.0,-999.0,69,-99.99,,,-99.99,,2013-08-23 16:53:00,
2013-08-23 12:13:00,88.0,75.0,30.01,NNW,340,0.0,-999.0,65,-99.99,,,-99.99,,2013-08-23 17:13:00,
2013-08-23 12:23:00,90.0,77.0,30.02,NNW,340,0.0,-999.0,66,-99.99,,,-99.99,,2013-08-23 17:23:00,
2013-08-23 12:43:00,90.0,75.0,30.01,NNW,340,0.0,-999.0,62,-99.99,,,-99.99,,2013-08-23 17:43:00,
2013-08-23 12:53:00,90.0,76.0,30.00,NNW,340,0.0,-999.0,63,-99.99,,,-99.99,,2013-08-23 17:53:00,
2013-08-23 13:12:00,90.0,73.0,30.00,NNW,340,0.0,-999.0,57,-99.99,,,-99.99,,2013-08-23 18:12:00,
2013-08-23 13:22:00,90.0,75.0,30.00,NNW,340,0.0,-999.0,61,-99.99,,,-99.99,,2013-08-23 18:22:00,
2013-08-23 13:52:00,90.0,73.0,29.99,North,360,0.0,-999.0,58,-99.99,,,-99.99,,2013-08-23 18:52:00,
2013-08-23 14:12:00,91.0,75.0,29.98,NNE,14,0.0,-999.0,59,-99.99,,,-99.99,,2013-08-23 19:12:00,
2013-08-23 14:22:00,91.0,75.0,29.98,NE,40,0.0,-999.0,60,-99.99,,,-99.99,,2013-08-23 19:22:00,
2013-08-23 14:42:00,91.0,74.0,29.97,ENE,69,0.0,-999.0,57,-99.99,,,-99.99,,2013-08-23 19:42:00,
2013-08-23 14:52:00,92.0,75.0,29.97,ENE,63,0.0,-999.0,57,-99.99,,,-99.99,,2013-08-23 19:52:00,
2013-08-23 15:12:00,91.0,73.0,29.97,NE,36,1.0,-999.0,56,-99.99,,,-99.99,,2013-08-23 20:12:00,
2013-08-23 15:22:00,91.0,74.0,29.96,NE,55,1.0,-999.0,57,-99.99,,,-99.99,,2013-08-23 20:22:00,
2013-08-23 15:52:00,90.0,73.0,29.95,NE,44,0.0,-999.0,57,-99.99,,,-99.99,,2013-08-23 20:52:00,
2013-08-23 16:11:00,89.0,73.0,29.95,East,91,0.0,-999.0,59,-99.99,,,-99.99,,2013-08-23 21:11:00,
2013-08-23 16:22:00,90.0,73.0,29.95,East,92,0.0,-999.0,57,-99.99,,,-99.99,,2013-08-23 21:22:00,
2013-08-23 16:54:00,89.0,74.0,29.94,SE,128,0.0,-999.0,61,-99.99,,,-99.99,,2013-08-23 21:54:00,
2013-08-23 17:13:00,89.0,72.0,29.94,ESE,103,0.0,-999.0,58,-99.99,,,-99.99,,2013-08-23 22:13:00,
2013-08-23 17:24:00,89.0,72.0,29.93,East,86,0.0,-999.0,57,-99.99,,,-99.99,,2013-08-23 22:24:00,
2013-08-23 17:43:00,89.0,72.0,29.94,East,86,0.0,-999.0,58,-99.99,,,-99.99,,2013-08-23 22:43:00,
2013-08-23 17:53:00,90.0,74.0,29.94,East,86,0.0,-999.0,59,-99.99,,,-99.99,,2013-08-23 22:53:00,
2013-08-23 18:12:00,90.0,76.0,29.94,East,86,0.0,-999.0,63,-99.99,,,-99.99,,2013-08-23 23:12:00,
2013-08-23 18:22:00,89.0,75.0,29.94,East,86,0.0,-999.0,64,-99.99,,,-99.99,,2013-08-23 23:22:00,
2013-08-23 18:43:00,89.0,76.0,29.95,East,86,0.0,-999.0,65,-99.99,,,-99.99,,2013-08-23 23:43:00,
2013-08-23 18:54:00,88.0,76.0,29.94,East,86,0.0,-999.0,68,-99.99,,,-99.99,,2013-08-23 23:54:00,
2013-08-23 19:11:00,87.0,76.0,29.95,East,86,0.0,-999.0,70,-99.99,,,-99.99,,2013-08-24 00:11:00,
2013-08-23 19:22:00,86.0,76.0,29.95,East,86,0.0,-999.0,72,-99.99,,,-99.99,,2013-08-24 00:22:00,
2013-08-23 19:43:00,85.0,75.0,29.95,East,86,0.0,-999.0,72,-99.99,,,-99.99,,2013-08-24 00:43:00,
2013-08-23 19:53:00,84.0,75.0,29.95,East,86,0.0,-999.0,75,-99.99,,,-99.99,,2013-08-24 00:53:00,
2013-08-23 20:11:00,83.0,76.0,29.96,East,86,0.0,-999.0,79,-99.99,,,-99.99,,2013-08-24 01:11:00,
2013-08-23 20:22:00,81.0,75.0,29.96,East,86,0.0,-999.0,81,-99.99,,,-99.99,,2013-08-24 01:22:00,
2013-08-23 20:42:00,80.0,75.0,29.96,East,86,0.0,-999.0,84,-99.99,,,-99.99,,2013-08-24 01:42:00,
2013-08-23 20:53:00,79.0,75.0,29.96,East,86,0.0,-999.0,87,-99.99,,,-99.99,,2013-08-24 01:53:00,
2013-08-23 21:12:00,78.0,74.0,29.97,East,86,0.0,-999.0,88,-99.99,,,-99.99,,2013-08-24 02:12:00,
2013-08-23 21:22:00,77.0,74.0,29.98,East,86,0.0,-999.0,90,-99.99,,,-99.99,,2013-08-24 02:22:00,
2013-08-23 21:42:00,76.0,73.0,29.98,East,86,0.0,-999.0,91,-99.99,,,-99.99,,2013-08-24 02:42:00,
2013-08-23 21:52:00,76.0,73.0,29.98,East,86,0.0,-999.0,91,-99.99,,,-99.99,,2013-08-24 02:52:00,
2013-08-23 22:12:00,75.0,73.0,29.98,East,86,0.0,-999.0,92,-99.99,,,-99.99,,2013-08-24 03:12:00,
2013-08-23 22:22:00,75.0,73.0,29.98,East,86,0.0,-999.0,92,-99.99,,,-99.99,,2013-08-24 03:22:00,
2013-08-23 22:44:00,74.0,72.0,29.98,East,86,0.0,-999.0,92,-99.99,,,-99.99,,2013-08-24 03:44:00,
2013-08-23 22:55:00,74.0,72.0,29.98,East,86,0.0,-999.0,92,-99.99,,,-99.99,,2013-08-24 03:55:00,
2013-08-23 23:14:00,73.0,71.0,29.98,East,86,0.0,-999.0,93,-99.99,,,-99.99,,2013-08-24 04:14:00,
2013-08-23 23:24:00,73.0,71.0,29.99,East,86,0.0,-999.0,93,-99.99,,,-99.99,,2013-08-24 04:24:00,
2013-08-23 23:44:00,72.0,70.0,29.99,East,86,0.0,-999.0,93,-99.99,,,-99.99,,2013-08-24 04:44:00,
2013-08-23 23:53:00,72.0,70.0,30.00,East,86,0.0,-999.0,93,-99.99,,,-99.99,,2013-08-24 04:53:00,